Retour au catalogue

STARLINK-6038

ActifCommunicationsSSO
NORAD 56317·PAYLOAD·🇺🇸 United States

Lancé Apr 27, 2023 depuis Vandenberg Space Force Base

Loading…

Prochains Passages (prochaines 24 heures)

TLE

FraisSource: CelesTrak SupGP

Époque: Sep 14, 2026, 20:44 UTC

1 56317C 23058A   26257.86437500  .00059985  00000+0  18621-2 0  2577
2 56317  97.2847 254.6901 0001585  88.5445 171.3028 15.33407441    16

Suivez STARLINK-6038 en temps réel avec AllMySat

Download on the App Store